Phoenix Deer Valley, AZ

1:10 AM MST on January 20, 2018 (GMT -0700)
Phoenix-Deer Valley Municipal

Weather History for KDVT - September, 2013

Change the Weather History Date:

Wednesday, September 4, 2013

  Actual Average Record
Temperature  
Mean Temperature 96 °F -  
Max Temperature 105 °F 97 °F 107 °F (1997)
Min Temperature 86 °F 76 °F 69 °F (1999)
Cooling Degree Days 30    
Growing Degree Days 46 (Base 50)    
Moisture  
Dew Point 56 °F    
Average Humidity 28    
Maximum Humidity 41    
Minimum Humidity 15    
Precipitation  
Precipitation 0.00 in - - ()
Sea Level Pressure  
Sea Level Pressure 29.79 in    
Wind  
Wind Speed 6 mph (SE)    
Max Wind Speed 13 mph    
Max Gust Speed 17 mph    
Visibility 10 miles    
Events      
Averages and records for this station are not official NWS values.
T = Trace of Precipitation, MM = Missing Value Source: NWS Daily Summary

Daily Weather History Graph

Daily Weather History Graph

Search for Another Location

Airport or City:

Trip Planner

Search our weather history database for the weather conditions in past years. The results will help you decide how hot, cold, wet, or windy it might be!

Date:

Astronomy

Sep. 04, 2013 Rise Set
Actual Time 6:04 AM MST 6:49 PM MST
Civil Twilight 5:39 AM MST 7:14 PM MST
Nautical Twilight 5:09 AM MST 7:44 PM MST
Astronomical Twilight 4:38 AM MST 8:14 PM MST
Moon 5:19 AM MST (9/4) 6:12 PM MST (9/4)
Length of Visible Light 13h 35m
Length of Day
12h 44m
Waning Crescent, 1% of the Moon is Illuminated
Sep 4
Waning Crescent
Sep 5
New
Sep 12
First Quarter
Sep 19
Full
Sep 26
Last Quarter

Hourly Weather History & Observations

Time (MST) Temp. Heat Index Dew Point Humidity Pressure Visibility Wind Dir Wind Speed Gust Speed Precip Events Conditions
12:53 AM 91.9 °F 90.8 °F 57.9 °F 32% 29.80 in 10.0 mi SE 9.2 mph - N/A   Clear
1:53 AM 90.0 °F 89.7 °F 60.1 °F 37% 29.79 in 10.0 mi ESE 9.2 mph - N/A   Clear
2:53 AM 89.1 °F 88.8 °F 60.1 °F 38% 29.80 in 10.0 mi Calm Calm - N/A   Clear
3:53 AM 88.0 °F 87.6 °F 60.1 °F 39% 29.80 in 10.0 mi ENE 3.5 mph - N/A   Clear
4:53 AM 87.1 °F 86.7 °F 60.1 °F 40% 29.80 in 10.0 mi NNE 3.5 mph - N/A   Clear
5:53 AM 86.0 °F 85.7 °F 60.1 °F 41% 29.82 in 10.0 mi Calm Calm - N/A   Clear
6:53 AM 87.1 °F 86.7 °F 60.1 °F 40% 29.83 in 10.0 mi NE 4.6 mph - N/A   Clear
7:53 AM 89.1 °F 88.8 °F 60.1 °F 38% 29.85 in 10.0 mi Calm Calm - N/A   Clear
8:53 AM 91.0 °F 90.5 °F 60.1 °F 35% 29.86 in 10.0 mi Variable 3.5 mph - N/A   Clear
9:53 AM 95.0 °F 94.4 °F 59.0 °F 30% 29.86 in 10.0 mi Calm Calm - N/A   Clear
10:53 AM 97.0 °F 96.1 °F 57.9 °F 27% 29.84 in 10.0 mi South 4.6 mph - N/A   Clear
11:53 AM 100.9 °F 99.6 °F 55.9 °F 22% 29.82 in 10.0 mi SSE 8.1 mph - N/A   Clear
12:53 PM 102.0 °F 101.1 °F 55.9 °F 22% 29.80 in 10.0 mi South 6.9 mph - N/A   Clear
1:53 PM 104.0 °F 102.9 °F 55.0 °F 20% 29.77 in 10.0 mi Calm Calm - N/A   Clear
2:53 PM 104.0 °F - 48.9 °F 16% 29.74 in 10.0 mi Variable 3.5 mph - N/A   Clear
3:53 PM 105.1 °F - 48.9 °F 15% 29.73 in 10.0 mi South 11.5 mph - N/A   Partly Cloudy
4:53 PM 105.1 °F - 48.9 °F 15% 29.72 in 10.0 mi South 10.4 mph 17.3 mph N/A   Clear
5:53 PM 104.0 °F - 50.0 °F 16% 29.71 in 10.0 mi SSW 4.6 mph - N/A   Clear
6:53 PM 102.0 °F - 50.0 °F 17% 29.71 in 10.0 mi SW 3.5 mph - N/A   Clear
7:53 PM 100.0 °F - 50.0 °F 18% 29.73 in 10.0 mi WSW 5.8 mph - N/A   Clear
8:53 PM 97.0 °F 94.6 °F 54.0 °F 23% 29.75 in 10.0 mi NW 6.9 mph - N/A   Clear
9:53 PM 97.0 °F 95.0 °F 55.0 °F 24% 29.76 in 10.0 mi North 12.7 mph - N/A   Clear
10:53 PM 95.0 °F 93.7 °F 57.0 °F 28% 29.77 in 10.0 mi NNE 9.2 mph - N/A   Clear
11:53 PM 91.9 °F 90.8 °F 57.9 °F 32% 29.78 in 10.0 mi NNE 5.8 mph - N/A   Clear